NOAA 16 DEB

Satellite information

Favourite Embed

Satellite Type and Status

DEBRISIN ORBIT

Key statistics

Satellite NOAA 16 DEB at a glance.

Uptime

9215

Days in orbit

Revolutions

≈ 14.5

Per day

Orbit

SSO

Sun Synchronous Orbit

Inclination

99.0

Latest

Satellite identification and parameters

Extended collection of information and parameters for NOAA 16 DEB.

Object identification

Identified? True

Debris? True

Object name: NOAA 16 DEB

International designator: 2000-055HT

Object number (NORAD): 41350

Object ID (CCSDS): 41350

Country: UNITED STATES OF AMERICA (US)

Current information (Y/N): Y

RCS size: SMALL

Orbital parameters

Period: 99.387 minutes

Inclination: 99.0428 deg

SMA: 7107.42 km

Apoapsis: 743.372 km

Periapsis: 715.198 km

RAAN: 190.4887 deg

Eccentricy: 0.00198205

Argument of periapsis: 335.0135 deg

Mean anomaly: 25.0095 deg

Mean motion: 14.48887978 rev/day

Mean motion (dot): 0.00015194 rev/day2

B* drag term: 0.0040106762 1/REarth

Two-line elements (TLE)

Creation date: Dec. 12, 2025, 10:14 a.m.

Reference frame: TEME

Reference center: EARTH

Epoch: Dec. 12, 2025, 12:59 a.m. UTC

TLE line 0: 0 NOAA 16 DEB

TLE line 1: 1 41350U 00055HT 25346.04106008 .00015194 00000-0 40107-2 0 9996

TLE line 2: 2 41350 99.0428 190.4887 0019820 335.0135 25.0095 14.48887978511848

Live tracking on map

Real-time ground track for satellite NOAA 16 DEB.

In-orbit conjunctions

A list of the most updated potential collisions computed for object NOAA 16 DEB.

Target Orbit TCA Probability of collision Miss distance Type
COSMOS 2251 DEB LEO 2024-11-12 13:26:12 0.0001194515 333.0 (m) DEBRIS
COSMOS 2251 DEB LEO 2024-11-12 11:46:04 0.000390853 320.0 (m) DEBRIS
FENGYUN 1C DEB SSO 2024-07-11 06:10:06 0.0002010019 161.0 (m) DEBRIS

Associated space launch

The NOAA K, L and M POES satellites begin the fifth generation of improved environmental monitoring in support of NOAA missions. The instrument payload has significant improvements and additions/deletions. The instrument changes have effected the spacecraft subsystems and data formats.

NOAA 16 DEB was lifted into orbit during the mission ‘Titan II SLV | NOAA 16’, on board a Titan II SLV space rocket.

The launch took place on Sept. 21, 2000, 10:22 a.m. from Space Launch Complex 4W.

For more information about the launch, click the button.

Launch to space Titan II SLV | NOAA 16
Titan II SLV | NOAA 16

Agency: N/A

Status: Launch Successful

Launch date: Sept. 21, 2000, 10:22 a.m. UTC

Rocket: Titan II SLV

Launch pad: Space Launch Complex 4W

Location: Vandenberg SFB, CA, USA

...

Latest news about this satellite

There are no fresh news available about this satellite. Check back as we update our databases every day.


Newsletter sign-up

Weekly statistics, charts and insights to help you stay on top of the space industry.